Terminal Aerodrome Forecast
Issued by NWS

Home | Current Version | Previous Version | Text Only | Print | Product List | Glossary On
Versions: 1 2 3 4 5 6 7 8 9 10 11 12 13 14 15 16 17 18 19 20
917
FTUS43 KDLH 260541
TAFHYR
TAF
KHYR 260541Z 2606/2706 00000KT P6SM BKN035
     FM261500 33006KT P6SM SCT200
     FM261800 34010KT P6SM VCSH BKN080
     FM270000 31006KT P6SM SCT080=

USA.gov is the U.S. government's official web portal to all federal, state and local government web resources and services.